DW8463 Weather Reports


time (UTC)temp
C
wind
direction
speed
KPH
gust
KPH
rain 1hr
cm
rain 24hr
cm
rain mn
cm
humidity
%
barometer
mb
20260502225803 17 0 9.7 19.3 0.00 0.00 0.00 30 1012.2
20260502224803 17 291 3.2 12.9 0.00 0.00 0.00 30 1012.3
20260502224303 17 285 4.8 16.1 0.00 0.00 0.00 30 1012.5
20260502223803 17 248 8.0 16.1 0.00 0.00 0.00 30 1012.6
20260502223303 17 255 9.7 20.9 0.00 0.00 0.00 30 1012.6
20260502222305 17 258 11.3 20.9 0.00 0.00 0.00 30 1012.7
20260502221803 17 280 8.0 12.9 0.00 0.00 0.00 30 1012.6
20260502220803 17 237 9.7 24.1 0.00 0.00 0.00 30 1012.8
20260502220303 17 271 14.5 29.0 0.00 0.00 0.00 30 1012.7
20260502215803 17 268 4.8 24.1 0.00 0.00 0.00 31 1012.8
20260502215305 17 249 9.7 22.5 0.00 0.00 0.00 31 1012.9
20260502214303 17 235 4.8 12.9 0.00 0.00 0.00 31 1013.0
20260502213303 17 193 9.7 24.1 0.00 0.00 0.00 31 1013.2
20260502212803 17 295 14.5 24.1 0.00 0.00 0.00 31 1013.3
20260502212304 17 284 11.3 20.9 0.00 0.00 0.00 31 1013.3
20260502211803 17 243 8.0 19.3 0.00 0.00 0.00 31 1013.3
20260502211303 17 238 8.0 19.3 0.00 0.00 0.00 31 1013.5
20260502205803 17 261 9.7 22.5 0.00 0.00 0.00 30 1013.8
20260502205305 17 202 6.4 19.3 0.00 0.00 0.00 30 1013.8
20260502204803 17 232 8.0 19.3 0.00 0.00 0.00 30 1013.9
20260502204303 17 260 9.7 19.3 0.00 0.00 0.00 30 1014.0
20260502203803 16 242 9.7 32.2 0.00 0.00 0.00 30 1014.2
20260502203302 17 263 11.3 20.9 0.00 0.00 0.00 30 1014.3
20260502202803 17 216 6.4 16.1 0.00 0.00 0.00 30 1014.3
20260502202304 16 256 4.8 19.3 0.00 0.00 0.00 30 1014.3
20260502201303 16 241 8.0 20.9 0.00 0.00 0.00 30 1014.5
20260502200803 16 0 8.0 19.3 0.00 0.00 0.00 30 1014.6
20260502200303 16 0 6.4 19.3 0.00 0.00 0.00 30 1014.8
20260502195803 16 0 11.3 19.3 0.00 0.00 0.00 30 1014.9
20260502195305 16 0 3.2 12.9 0.00 0.00 0.00 30 1014.9
20260502194803 16 0 11.3 25.7 0.00 0.00 0.00 30 1015.1
20260502194303 16 274 4.8 19.3 0.00 0.00 0.00 30 1015.2
20260502193803 16 304 11.3 19.3 0.00 0.00 0.00 30 1015.4
20260502193303 16 215 8.0 19.3 0.00 0.00 0.00 30 1015.4
20260502192305 16 253 8.0 16.1 0.00 0.00 0.00 30 1015.5
20260502191803 15 250 16.1 24.1 0.00 0.00 0.00 30 1015.6
20260502191303 15 290 4.8 14.5 0.00 0.00 0.00 30 1015.6
20260502190803 15 283 9.7 19.3 0.00 0.00 0.00 30 1015.8
20260502190303 15 283 6.4 19.3 0.00 0.00 0.00 30 1015.9
20260502185803 15 300 6.4 12.9 0.00 0.00 0.00 30 1015.9
20260502185305 15 297 8.0 19.3 0.00 0.00 0.00 30 1016.0
20260502184303 15 0 6.4 14.5 0.00 0.00 0.00 30 1016.2
20260502183803 15 0 8.0 16.1 0.00 0.00 0.00 30 1016.2
20260502183303 15 0 6.4 19.3 0.00 0.00 0.00 30 1016.3
20260502182803 15 0 4.8 19.3 0.00 0.00 0.00 30 1016.4
20260502182304 15 0 9.7 27.4 0.00 0.00 0.00 30 1016.5
20260502181303 15 0 4.8 19.3 0.00 0.00 0.00 30 1016.6
20260502180803 15 0 4.8 14.5 0.00 0.00 0.00 30 1016.6
20260502180303 14 0 8.0 19.3 0.00 0.00 0.00 30 1016.8
20260502170303 13 0 9.7 22.5 0.00 0.00 0.00 34 1017.7
20260502164303 13 0 3.2 16.1 0.00 0.00 0.00 35 1017.8
20260502162803 13 0 11.3 22.5 0.00 0.00 0.00 35 1018.0
20260502162304 13 0 8.0 27.4 0.00 0.00 0.00 35 1018.1
20260502161804 12 0 8.0 25.7 0.00 0.00 0.00 35 1018.2
20260502161303 12 0 11.3 19.3 0.00 0.00 0.00 35 1018.3
20260502160803 13 0 9.7 20.9 0.00 0.00 0.00 35 1018.4
20260502160303 13 0 8.0 22.5 0.00 0.00 0.00 35 1018.4
20260502152305 12 0 12.9 22.5 0.00 0.00 0.00 42 1018.5
20260502151804 12 0 9.7 22.5 0.00 0.00 0.00 42 1018.6
20260502151303 12 0 6.4 19.3 0.00 0.00 0.00 42 1018.5
20260502150803 12 0 3.2 12.9 0.00 0.00 0.00 42 1018.6
20260502150303 12 0 8.0 16.1 0.00 0.00 0.00 42 1018.6
20260502130304 6 0 1.6 4.8 0.00 0.00 0.00 60 1019.1
20260502123804 3 0 1.6 4.8 0.00 0.00 0.00 73 1019.1
20260502123303 3 0 3.2 4.8 0.00 0.00 0.00 73 1019.1
20260502122305 2 0 1.6 4.8 0.00 0.00 0.00 73 1019.1
20260502121803 1 0 1.6 4.8 0.00 0.00 0.00 73 1019.0
20260502121303 1 0 1.6 4.8 0.00 0.00 0.00 73 1019.0
20260502120803 0 0 3.2 4.8 0.00 0.00 0.00 73 1019.1
20260502120304 0 0 1.6 3.2 0.00 0.00 0.00 73 1019.0
20260502115803 0 0 0.0 3.2 0.00 0.00 0.00 75 1019.1
20260502115305 0 0 0.0 1.6 0.00 0.00 0.00 75 1019.0
20260502114803 0 0 0.0 1.6 0.00 0.00 0.00 75 1019.0
20260502114303 0 307 0.0 1.6 0.00 0.00 0.00 75 1019.0
20260502113803 -1 306 0.0 1.6 0.00 0.00 0.00 75 1019.0
20260502113303 -1 347 0.0 1.6 0.00 0.00 0.00 75 1018.9
20260502112804 -1 348 0.0 1.6 0.00 0.00 0.00 75 1018.9
20260502111804 -1 348 0.0 1.6 0.00 0.00 0.00 75 1018.9
20260502111304 -1 348 0.0 0.0 0.00 0.00 0.00 75 1018.8
20260502110803 -1 348 0.0 0.0 0.00 0.00 0.00 75 1018.9
20260502110303 -1 348 0.0 0.0 0.00 0.00 0.00 75 1018.9
20260502105803 -1 348 0.0 0.0 0.00 0.00 0.00 73 1018.9
20260502104803 -1 348 0.0 0.0 0.00 0.00 0.00 73 1018.8
20260502104303 -1 348 0.0 0.0 0.00 0.00 0.00 73 1018.9
20260502103803 -1 348 0.0 0.0 0.00 0.00 0.00 73 1018.8
20260502103303 -1 348 0.0 0.0 0.00 0.00 0.00 73 1018.8
20260502102803 -1 348 0.0 0.0 0.00 0.00 0.00 73 1018.8
20260502102306 -1 348 0.0 0.0 0.00 0.00 0.00 73 1018.9
20260502101803 -1 348 0.0 0.0 0.00 0.00 0.00 73 1018.9
20260502101303 -1 348 0.0 0.0 0.00 0.00 0.00 73 1018.9
20260502100803 -1 348 0.0 0.0 0.00 0.00 0.00 73 1018.9
20260502100303 -1 348 0.0 0.0 0.00 0.00 0.00 73 1018.9
20260502091303 -1 348 0.0 0.0 0.00 0.00 0.00 71 1019.0
20260502090803 -1 348 0.0 0.0 0.00 0.00 0.00 71 1019.0
20260502090303 -1 348 0.0 0.0 0.00 0.00 0.00 71 1018.9
20260502071303 -1 348 0.0 0.0 0.00 0.00 0.00 65 1019.0
20260502070804 -1 348 0.0 0.0 0.00 0.00 0.00 65 1019.0
20260502065803 -1 348 0.0 0.0 0.00 0.00 0.00 65 1019.1
20260502065306 -1 348 0.0 0.0 0.00 0.00 0.00 65 1019.1
20260502064804 -1 348 0.0 0.0 0.00 0.00 0.00 65 1019.1
20260502064303 -1 348 0.0 0.0 0.00 0.00 0.00 65 1019.1
20260502063804 -1 348 0.0 0.0 0.00 0.00 0.00 65 1019.2
20260502062803 -1 348 0.0 0.0 0.00 0.00 0.00 65 1019.2
20260502062306 0 348 0.0 0.0 0.00 0.00 0.00 65 1019.2
20260502061803 0 348 0.0 0.0 0.00 0.00 0.00 65 1019.2
20260502061303 0 348 0.0 0.0 0.00 0.00 0.00 65 1019.2
20260502060803 0 348 0.0 0.0 0.00 0.00 0.00 65 1019.1
20260502060303 0 348 0.0 0.0 0.00 0.00 0.00 65 1019.1
20260502055804 0 348 0.0 0.0 0.00 0.00 0.00 66 1019.1
20260502055305 0 348 0.0 0.0 0.00 0.00 0.00 66 1019.1
20260502054804 0 348 0.0 0.0 0.00 0.00 0.00 66 1019.1
20260502054304 0 348 0.0 0.0 0.00 0.00 0.00 66 1019.1
20260502053803 0 348 0.0 0.0 0.00 0.00 0.00 66 1019.1
20260502051803 0 348 0.0 0.0 0.00 0.00 0.00 66 1019.1
20260502051303 0 348 0.0 0.0 0.00 0.00 0.00 66 1019.1
20260502050814 0 348 0.0 0.0 0.00 0.00 0.00 66 1019.0
20260502050303 0 348 0.0 0.0 0.00 0.00 0.00 66 1019.0
20260502045804 0 348 0.0 0.0 0.00 0.00 0.00 64 1019.0
20260502044804 0 348 0.0 0.0 0.00 0.00 0.00 64 1019.0
20260502044304 0 348 0.0 0.0 0.00 0.00 0.00 64 1019.0
20260502043803 0 348 0.0 0.0 0.00 0.00 0.00 64 1019.0
20260502043303 0 348 0.0 0.0 0.00 0.00 0.00 64 1019.0
20260502042803 1 348 0.0 0.0 0.00 0.00 0.00 64 1019.1
20260502042306 1 348 0.0 0.0 0.00 0.00 0.00 64 1019.0
20260502041804 1 348 0.0 0.0 0.00 0.00 0.00 64 1019.1
20260502041304 1 348 0.0 0.0 0.00 0.00 0.00 64 1019.0
20260502040303 1 348 0.0 0.0 0.00 0.00 0.00 60 1019.0
20260502035804 1 348 0.0 0.0 0.00 0.00 0.00 41 1018.9
20260502035306 1 348 0.0 0.0 0.00 0.00 0.00 41 1019.0
20260502034804 1 348 0.0 0.0 0.00 0.00 0.00 41 1019.0
20260502034303 1 348 0.0 0.0 0.00 0.00 0.00 41 1019.0
20260502033803 1 348 0.0 0.0 0.00 0.00 0.00 41 1019.0
20260502033303 2 348 0.0 0.0 0.00 0.00 0.00 41 1019.0
20260502032803 2 0 0.0 0.0 0.00 0.00 0.00 41 1019.0
20260502032306 2 0 0.0 0.0 0.00 0.00 0.00 41 1019.0
20260502031804 2 0 0.0 0.0 0.00 0.00 0.00 41 1019.0
20260502031303 2 0 0.0 0.0 0.00 0.00 0.00 41 1019.0
20260502030303 2 0 0.0 0.0 0.00 0.00 0.00 41 1018.9
20260502025306 2 0 0.0 0.0 0.00 0.00 0.00 41 1019.0
20260502024303 3 359 0.0 0.0 0.00 0.00 0.00 41 1018.9
20260502023803 3 0 0.0 0.0 0.00 0.00 0.00 41 1018.9
20260502023303 3 0 0.0 0.0 0.00 0.00 0.00 41 1018.9
20260502022306 3 0 0.0 0.0 0.00 0.00 0.00 41 1018.8
20260502021803 4 0 0.0 0.0 0.00 0.00 0.00 41 1018.8
20260502021303 4 0 0.0 0.0 0.00 0.00 0.00 41 1018.7
20260502020804 5 0 0.0 0.0 0.00 0.00 0.00 41 1018.7
20260502020304 5 0 0.0 0.0 0.00 0.00 0.00 41 1018.6
20260502015804 5 0 0.0 0.0 0.00 0.00 0.00 36 1018.6
20260502015305 5 0 0.0 0.0 0.00 0.00 0.00 36 1018.5
20260502014803 5 0 0.0 0.0 0.00 0.00 0.00 36 1018.5
20260502013804 6 0 0.0 0.0 0.00 0.00 0.00 36 1018.4
20260502013303 6 0 0.0 0.0 0.00 0.00 0.00 36 1018.4
20260502012804 6 0 0.0 0.0 0.00 0.00 0.00 36 1018.4
20260502012306 7 358 0.0 0.0 0.00 0.00 0.00 36 1018.3
20260502011804 7 0 0.0 0.0 0.00 0.00 0.00 36 1018.3
20260502011303 7 358 0.0 0.0 0.00 0.00 0.00 36 1018.3
20260502010803 8 351 0.0 3.2 0.00 0.00 0.00 36 1018.2
20260502010304 8 0 3.2 4.8 0.00 0.00 0.00 36 1018.2
20260502005803 8 358 3.2 4.8 0.00 0.00 0.00 30 1018.2
20260502005306 8 0 3.2 8.0 0.00 0.00 0.00 30 1018.2
20260502004304 9 0 4.8 12.9 0.00 0.00 0.00 30 1018.1
20260502003804 9 0 3.2 8.0 0.00 0.00 0.00 30 1018.1
20260502003304 9 0 4.8 9.7 0.00 0.00 0.00 30 1018.0
20260502002804 10 0 4.8 9.7 0.00 0.00 0.00 30 1018.0
20260502002305 10 0 3.2 8.0 0.00 0.00 0.00 30 1018.0
20260502001803 10 0 4.8 12.9 0.00 0.00 0.00 30 1018.0
20260502001303 10 356 6.4 12.9 0.00 0.00 0.00 30 1018.0
20260502000803 9 0 8.0 14.5 0.00 0.00 0.00 30 1017.9
20260502000303 9 0 4.8 9.7 0.00 0.00 0.00 30 1017.9
20260501235804 10 0 8.0 14.5 0.00 0.00 0.00 31 1017.9
20260501235305 10 0 6.4 12.9 0.00 0.00 0.00 31 1017.9
20260501234803 10 0 8.0 19.3 0.00 0.00 0.00 31 1017.9
20260501234304 10 0 9.7 16.1 0.00 0.00 0.00 31 1017.9
20260501233303 10 0 8.0 19.3 0.00 0.00 0.00 31 1017.8
20260501232803 10 0 9.7 16.1 0.00 0.00 0.00 31 1017.8
20260501232305 10 0 6.4 16.1 0.00 0.00 0.00 31 1017.8
20260501231803 9 0 4.8 14.5 0.00 0.00 0.00 31 1017.9
20260501231303 9 0 4.8 12.9 0.00 0.00 0.00 31 1017.9
20260501230803 9 0 6.4 14.5 0.00 0.00 0.00 31 1017.9